QPF
0.00 0.00 0.00 0.00 0.00 0.00 0.00 0.00 0.00 0.00 0.00 0.00 0.00 0.00 0.00 0.00 0.00 0.00 0.00 0.00 0.00 0.02 0.04 0.03 0.02 0.02 0.02 0.01 0.01 0.01 0.00 0.01 0.01 0.01 0.01 0.02 0.03 0.03 0.03 0.02 0.01 0.00 0.00 0.00
0.00 0.00 0.00 0.00 0.00 0.00 0.00 0.00 0.00 0.00 0.00 0.00 0.00 0.00 0.00 0.00 0.00 0.00 0.00 0.00 0.00 0.03 0.07 0.08 0.04 0.02 0.02 0.02 0.02 0.02 0.02 0.02 0.03 0.03 0.03 0.03 0.03 0.03 0.01 0.01 0.00 0.00 0.00 0.00
0.00 0.00 0.00 0.00 0.00 0.00 0.00 0.00 0.00 0.00 0.00 0.00 0.00 0.00 0.00 0.00 0.00 0.00 0.00 0.00 0.00 0.00 0.03 0.07 0.04 0.02 0.02 0.03 0.04 0.05 0.05 0.06 0.06 0.05 0.04 0.04 0.03 0.02 0.02 0.01 0.01 0.00 0.00 0.00
0.00 0.00 0.00 0.00 0.00 0.00 0.00 0.00 0.00 0.00 0.00 0.00 0.00 0.00 0.00 0.00 0.00 0.00 0.00 0.00 0.00 0.00 0.00 0.01 0.01 0.01 0.02 0.04 0.08 0.08 0.10 0.11 0.11 0.10 0.08 0.07 0.06 0.04 0.04 0.03 0.02 0.01 0.00 0.00
0.00 0.00 0.00 0.00 0.00 0.00 0.00 0.00 0.00 0.00 0.00 0.00 0.00 0.00 0.00 0.00 0.00 0.00 0.00 0.00 0.00 0.00 0.00 0.00 0.00 0.01 0.02 0.05 0.08 0.10 0.12 0.14 0.15 0.14 0.12 0.10 0.08 0.06 0.05 0.03 0.02 0.01 0.01 0.00
0.00 0.00 0.00 0.00 0.00 0.00 0.00 0.00 0.00 0.00 0.00 0.00 0.00 0.00 0.00 0.00 0.00 0.00 0.00 0.00 0.00 0.00 0.00 0.00 0.00 0.01 0.02 0.03 0.07 0.10 0.12 0.14 0.13 0.13 0.13 0.13 0.11 0.09 0.06 0.03 0.02 0.01 0.01 0.00
0.00 0.00 0.00 0.00 0.00 0.00 0.00 0.00 0.00 0.00 0.00 0.00 0.00 0.00 0.00 0.00 0.00 0.00 0.00 0.00 0.00 0.00 0.00 0.01 0.01 0.01 0.01 0.02 0.04 0.07 0.08 0.09 0.09 0.09 0.09 0.09 0.08 0.06 0.04 0.03 0.02 0.01 0.00 0.00
0.00 0.00 0.00 0.00 0.00 0.00 0.00 0.00 0.00 0.00 0.00 0.00 0.00 0.00 0.00 0.00 0.00 0.00 0.00 0.00 0.00 0.00 0.00 0.01 0.01 0.00 0.01 0.01 0.02 0.03 0.04 0.05 0.06 0.06 0.06 0.05 0.04 0.03 0.03 0.02 0.02 0.01 0.00 0.00
0.00 0.00 0.00 0.00 0.00 0.00 0.00 0.00 0.00 0.00 0.00 0.00 0.00 0.00 0.00 0.00 0.00 0.00 0.00 0.00 0.00 0.00 0.00 0.00 0.01 0.00 0.00 0.01 0.01 0.02 0.03 0.03 0.04 0.04 0.04 0.03 0.02 0.02 0.02 0.01 0.01 0.00 0.00 0.00
0.00 0.00 0.00 0.00 0.00 0.00 0.00 0.00 0.00 0.00 0.00 0.00 0.00 0.00 0.00 0.00 0.00 0.00 0.00 0.00 0.00 0.01 0.03 0.02 0.01 0.01 0.00 0.00 0.01 0.02 0.03 0.04 0.04 0.04 0.03 0.02 0.02 0.02 0.01 0.01 0.01 0.00 0.00 0.00
0.00 0.00 0.00 0.00 0.00 0.00 0.00 0.00 0.00 0.00 0.00 0.00 0.00 0.00 0.00 0.00 0.00 0.00 0.00 0.01 0.01 0.05 0.08 0.05 0.02 0.01 0.00 0.00 0.02 0.04 0.04 0.04 0.04 0.03 0.03 0.02 0.02 0.01 0.01 0.01 0.00 0.00 0.00 0.00
0.00 0.00 0.00 0.00 0.00 0.00 0.00 0.00 0.00 0.00 0.00 0.00 0.00 0.00 0.00 0.00 0.00 0.00 0.00 0.02 0.03 0.04 0.07 0.04 0.02 0.01 0.01 0.01 0.02 0.03 0.04 0.04 0.04 0.03 0.03 0.02 0.02 0.01 0.01 0.00 0.00 0.00 0.00 0.00
0.00 0.00 0.00 0.00 0.00 0.00 0.00 0.00 0.00 0.00 0.00 0.00 0.00 0.00 0.00 0.00 0.00 0.00 0.03 0.08 0.09 0.10 0.07 0.03 0.01 0.01 0.01 0.01 0.02 0.04 0.05 0.05 0.04 0.03 0.02 0.02 0.02 0.01 0.01 0.01 0.01 0.00 0.00 0.00
0.00 0.00 0.00 0.00 0.00 0.00 0.00 0.00 0.00 0.00 0.00 0.00 0.00 0.00 0.00 0.00 0.01 0.03 0.07 0.11 0.14 0.18 0.10 0.04 0.02 0.02 0.02 0.02 0.04 0.04 0.05 0.04 0.04 0.03 0.03 0.02 0.02 0.02 0.01 0.01 0.01 0.01 0.01 0.01
0.00 0.00 0.00 0.00 0.00 0.00 0.00 0.00 0.00 0.00 0.00 0.00 0.00 0.00 0.00 0.01 0.04 0.05 0.06 0.09 0.13 0.17 0.13 0.06 0.04 0.03 0.02 0.03 0.04 0.05 0.05 0.05 0.05 0.05 0.04 0.04 0.04 0.03 0.02 0.02 0.01 0.01 0.02 0.02
0.00 0.00 0.00 0.00 0.00 0.00 0.00 0.00 0.00 0.00 0.00 0.00 0.00 0.00 0.01 0.01 0.02 0.02 0.03 0.04 0.06 0.07 0.09 0.07 0.06 0.04 0.04 0.05 0.07 0.09 0.09 0.10 0.09 0.08 0.08 0.07 0.06 0.05 0.04 0.03 0.02 0.03 0.04 0.04
0.00 0.00 0.00 0.00 0.00 0.00 0.00 0.00 0.00 0.00 0.00 0.00 0.00 0.01 0.01 0.01 0.01 0.02 0.03 0.03 0.04 0.07 0.08 0.07 0.05 0.05 0.06 0.09 0.13 0.17 0.19 0.18 0.17 0.16 0.13 0.10 0.08 0.06 0.04 0.03 0.03 0.04 0.04 0.02
0.00 0.00 0.00 0.00 0.00 0.00 0.00 0.00 0.00 0.00 0.00 0.00 0.01 0.01 0.01 0.01 0.01 0.01 0.01 0.02 0.04 0.05 0.05 0.05 0.05 0.06 0.09 0.14 0.20 0.22 0.22 0.21 0.19 0.16 0.12 0.08 0.05 0.03 0.03 0.03 0.03 0.02 0.01 0.01
0.00 0.00 0.00 0.00 0.00 0.00 0.01 0.00 0.00 0.00 0.01 0.00 0.00 0.01 0.00 0.01 0.01 0.02 0.01 0.01 0.02 0.02 0.03 0.05 0.07 0.09 0.14 0.19 0.22 0.22 0.22 0.20 0.17 0.13 0.09 0.05 0.03 0.03 0.03 0.02 0.01 0.01 0.00 0.00
0.00 0.00 0.00 0.00 0.01 0.01 0.03 0.00 0.00 0.00 0.02 0.02 0.01 0.01 0.02 0.02 0.04 0.02 0.01 0.00 0.01 0.02 0.04 0.07 0.10 0.14 0.17 0.19 0.20 0.19 0.18 0.15 0.11 0.07 0.05 0.04 0.03 0.02 0.01 0.01 0.01 0.00 0.00 0.00
0.03 0.02 0.02 0.02 0.03 0.04 0.03 0.00 0.00 0.01 0.05 0.03 0.01 0.01 0.02 0.03 0.02 0.01 0.01 0.01 0.02 0.03 0.06 0.09 0.12 0.13 0.15 0.15 0.14 0.13 0.11 0.08 0.05 0.03 0.03 0.02 0.01 0.00 0.00 0.00 0.00 0.00 0.00 0.01
0.04 0.05 0.06 0.05 0.06 0.08 0.04 0.00 0.01 0.03 0.02 0.01 0.01 0.01 0.02 0.02 0.01 0.01 0.01 0.02 0.03 0.04 0.06 0.07 0.09 0.10 0.10 0.09 0.08 0.07 0.05 0.03 0.02 0.01 0.01 0.00 0.00 0.00 0.00 0.00 0.01 0.00 0.01 0.01
0.00 0.03 0.08 0.09 0.09 0.07 0.03 0.01 0.01 0.01 0.01 0.01 0.01 0.02 0.03 0.02 0.01 0.01 0.02 0.03 0.04 0.05 0.06 0.06 0.05 0.05 0.04 0.04 0.04 0.03 0.02 0.01 0.01 0.01 0.00 0.00 0.00 0.00 0.00 0.00 0.00 0.00 0.01 0.01
0.03 0.01 0.02 0.04 0.06 0.04 0.02 0.01 0.01 0.01 0.01 0.02 0.02 0.03 0.04 0.03 0.02 0.03 0.04 0.04 0.05 0.05 0.05 0.05 0.04 0.03 0.02 0.02 0.01 0.01 0.00 0.00 0.00 0.01 0.00 0.00 0.01 0.00 0.00 0.00 0.00 0.01 0.01 0.01
0.06 0.04 0.05 0.07 0.07 0.04 0.02 0.01 0.01 0.02 0.02 0.02 0.03 0.04 0.03 0.03 0.03 0.03 0.05 0.05 0.05 0.05 0.04 0.03 0.02 0.01 0.01 0.01 0.00 0.00 0.00 0.01 0.01 0.00 0.00 0.00 0.01 0.01 0.01 0.00 0.00 0.01 0.01 0.00
0.05 0.06 0.09 0.10 0.08 0.06 0.04 0.03 0.03 0.03 0.03 0.03 0.02 0.03 0.03 0.03 0.03 0.04 0.05 0.05 0.05 0.04 0.03 0.02 0.01 0.01 0.00 0.00 0.00 0.00 0.00 0.00 0.01 0.01 0.01 0.00 0.00 0.00 0.00 0.01 0.01 0.00 0.00 0.00
MSLP
1007.89 1008.24 1008.38 1008.34 1008.17 1007.94 1007.73 1007.55 1007.43 1007.33 1007.22 1007.04 1006.76 1006.34 1005.81 1005.21 1004.58 1004.02 1003.58 1003.32 1003.26 1003.42 1003.77 1004.27 1004.89 1005.57 1006.30 1007.05 1007.80 1008.56 1009.31 1010.06 1010.78 1011.47 1012.11 1012.68 1013.18 1013.62 1013.99 1014.33 1014.64 1014.95 1015.27 1015.62
1008.07 1008.26 1008.23 1008.05 1007.81 1007.59 1007.44 1007.39 1007.42 1007.47 1007.47 1007.35 1007.06 1006.57 1005.92 1005.18 1004.41 1003.74 1003.23 1002.95 1002.92 1003.13 1003.56 1004.14 1004.82 1005.55 1006.30 1007.05 1007.81 1008.57 1009.35 1010.14 1010.92 1011.68 1012.39 1013.02 1013.57 1014.02 1014.38 1014.69 1014.97 1015.25 1015.54 1015.87
1008.03 1008.06 1007.90 1007.64 1007.38 1007.21 1007.18 1007.28 1007.47 1007.66 1007.76 1007.67 1007.33 1006.75 1005.95 1005.04 1004.12 1003.33 1002.75 1002.47 1002.49 1002.80 1003.35 1004.06 1004.86 1005.68 1006.49 1007.27 1008.04 1008.80 1009.58 1010.37 1011.17 1011.95 1012.69 1013.35 1013.92 1014.38 1014.74 1015.03 1015.29 1015.54 1015.82 1016.13
1007.72 1007.63 1007.39 1007.10 1006.88 1006.81 1006.93 1007.21 1007.58 1007.91 1008.09 1008.01 1007.61 1006.90 1005.94 1004.84 1003.76 1002.85 1002.21 1001.93 1002.03 1002.47 1003.18 1004.06 1005.01 1005.97 1006.87 1007.71 1008.50 1009.25 1010.00 1010.75 1011.51 1012.27 1012.99 1013.64 1014.20 1014.66 1015.02 1015.32 1015.57 1015.82 1016.09 1016.38
1007.16 1006.98 1006.70 1006.44 1006.31 1006.39 1006.69 1007.17 1007.72 1008.19 1008.45 1008.37 1007.90 1007.06 1005.93 1004.65 1003.41 1002.37 1001.68 1001.41 1001.59 1002.16 1003.05 1004.13 1005.28 1006.40 1007.42 1008.34 1009.15 1009.88 1010.57 1011.25 1011.93 1012.61 1013.27 1013.87 1014.41 1014.86 1015.23 1015.53 1015.80 1016.06 1016.33 1016.62
1006.42 1006.18 1005.90 1005.70 1005.70 1005.95 1006.45 1007.13 1007.85 1008.46 1008.78 1008.71 1008.18 1007.22 1005.94 1004.50 1003.11 1001.96 1001.21 1000.96 1001.22 1001.93 1002.99 1004.27 1005.61 1006.91 1008.07 1009.07 1009.91 1010.61 1011.24 1011.83 1012.40 1012.97 1013.53 1014.07 1014.56 1014.99 1015.36 1015.68 1015.98 1016.26 1016.54 1016.83
1005.62 1005.35 1005.09 1004.98 1005.10 1005.51 1006.19 1007.05 1007.92 1008.64 1009.03 1008.96 1008.39 1007.35 1005.96 1004.40 1002.90 1001.66 1000.88 1000.63 1000.95 1001.77 1002.98 1004.44 1005.96 1007.41 1008.71 1009.79 1010.67 1011.36 1011.93 1012.41 1012.87 1013.33 1013.78 1014.23 1014.67 1015.08 1015.45 1015.79 1016.11 1016.41 1016.71 1017.00
1004.92 1004.63 1004.40 1004.35 1004.58 1005.12 1005.93 1006.91 1007.89 1008.68 1009.12 1009.07 1008.49 1007.41 1005.97 1004.34 1002.78 1001.51 1000.69 1000.45 1000.80 1001.70 1003.01 1004.59 1006.24 1007.83 1009.24 1010.42 1011.34 1012.03 1012.56 1012.97 1013.33 1013.68 1014.04 1014.42 1014.79 1015.17 1015.54 1015.89 1016.22 1016.54 1016.85 1017.14
1004.46 1004.16 1003.95 1003.95 1004.22 1004.82 1005.68 1006.70 1007.72 1008.54 1009.00 1008.98 1008.42 1007.36 1005.93 1004.32 1002.77 1001.50 1000.68 1000.44 1000.80 1001.72 1003.07 1004.71 1006.45 1008.12 1009.62 1010.87 1011.84 1012.57 1013.08 1013.46 1013.77 1014.05 1014.34 1014.64 1014.97 1015.32 1015.67 1016.02 1016.35 1016.67 1016.97 1017.24
1004.34 1004.03 1003.83 1003.83 1004.10 1004.66 1005.48 1006.46 1007.42 1008.22 1008.67 1008.66 1008.16 1007.18 1005.85 1004.33 1002.86 1001.65 1000.87 1000.63 1000.98 1001.87 1003.21 1004.83 1006.58 1008.29 1009.83 1011.14 1012.18 1012.95 1013.50 1013.89 1014.19 1014.44 1014.69 1014.96 1015.25 1015.56 1015.88 1016.21 1016.52 1016.82 1017.09 1017.33
1004.60 1004.31 1004.09 1004.05 1004.25 1004.70 1005.38 1006.21 1007.05 1007.74 1008.15 1008.16 1007.74 1006.89 1005.73 1004.39 1003.09 1002.00 1001.29 1001.08 1001.40 1002.23 1003.49 1005.04 1006.73 1008.41 1009.96 1011.30 1012.39 1013.23 1013.84 1014.29 1014.62 1014.88 1015.13 1015.37 1015.63 1015.91 1016.19 1016.48 1016.75 1017.01 1017.23 1017.43
1005.21 1004.93 1004.70 1004.59 1004.66 1004.93 1005.40 1006.01 1006.65 1007.19 1007.52 1007.55 1007.23 1006.57 1005.63 1004.55 1003.48 1002.58 1002.00 1001.84 1002.14 1002.89 1004.03 1005.45 1007.02 1008.62 1010.12 1011.46 1012.59 1013.49 1014.18 1014.70 1015.09 1015.40 1015.66 1015.90 1016.13 1016.37 1016.60 1016.83 1017.04 1017.24 1017.42 1017.57
1006.06 1005.81 1005.56 1005.37 1005.28 1005.34 1005.56 1005.90 1006.29 1006.65 1006.90 1006.94 1006.74 1006.29 1005.64 1004.86 1004.09 1003.45 1003.04 1002.97 1003.26 1003.93 1004.93 1006.19 1007.60 1009.05 1010.47 1011.76 1012.89 1013.83 1014.58 1015.17 1015.63 1015.98 1016.27 1016.51 1016.71 1016.90 1017.07 1017.23 1017.38 1017.52 1017.64 1017.75
1007.00 1006.80 1006.55 1006.28 1006.04 1005.89 1005.84 1005.91 1006.05 1006.22 1006.37 1006.44 1006.37 1006.16 1005.82 1005.40 1004.98 1004.63 1004.45 1004.49 1004.80 1005.40 1006.26 1007.34 1008.55 1009.83 1011.10 1012.30 1013.39 1014.33 1015.11 1015.74 1016.25 1016.64 1016.93 1017.16 1017.33 1017.47 1017.57 1017.66 1017.74 1017.81 1017.89 1017.97
1007.91 1007.77 1007.53 1007.21 1006.85 1006.52 1006.24 1006.06 1005.98 1005.98 1006.06 1006.15 1006.23 1006.27 1006.25 1006.20 1006.15 1006.12 1006.19 1006.38 1006.74 1007.29 1008.02 1008.91 1009.91 1010.98 1012.07 1013.14 1014.12 1015.01 1015.78 1016.42 1016.92 1017.32 1017.60 1017.80 1017.93 1018.00 1018.04 1018.06 1018.08 1018.10 1018.14 1018.20
1008.66 1008.60 1008.39 1008.06 1007.64 1007.17 1006.73 1006.36 1006.11 1005.99 1006.01 1006.15 1006.38 1006.66 1006.96 1007.26 1007.56 1007.87 1008.19 1008.55 1008.98 1009.50 1010.11 1010.82 1011.61 1012.47 1013.35 1014.23 1015.08 1015.86 1016.55 1017.14 1017.61 1017.97 1018.22 1018.38 1018.45 1018.47 1018.44 1018.41 1018.37 1018.35 1018.37 1018.42
1009.22 1009.22 1009.08 1008.78 1008.34 1007.83 1007.30 1006.83 1006.47 1006.29 1006.29 1006.48 1006.85 1007.34 1007.92 1008.54 1009.16 1009.75 1010.31 1010.84 1011.35 1011.85 1012.37 1012.92 1013.51 1014.14 1014.80 1015.48 1016.15 1016.78 1017.35 1017.85 1018.25 1018.54 1018.74 1018.84 1018.86 1018.83 1018.75 1018.67 1018.60 1018.56 1018.57 1018.62
1009.57 1009.65 1009.58 1009.35 1008.97 1008.48 1007.94 1007.45 1007.07 1006.87 1006.89 1007.14 1007.62 1008.28 1009.07 1009.94 1010.81 1011.64 1012.40 1013.06 1013.63 1014.13 1014.57 1014.98 1015.39 1015.82 1016.26 1016.73 1017.20 1017.66 1018.09 1018.47 1018.77 1018.98 1019.11 1019.16 1019.14 1019.07 1018.97 1018.87 1018.78 1018.74 1018.74 1018.79
1009.78 1009.93 1009.95 1009.81 1009.53 1009.12 1008.66 1008.22 1007.87 1007.71 1007.77 1008.08 1008.63 1009.40 1010.33 1011.35 1012.39 1013.37 1014.26 1015.02 1015.63 1016.12 1016.49 1016.79 1017.05 1017.29 1017.55 1017.82 1018.10 1018.40 1018.68 1018.93 1019.12 1019.26 1019.33 1019.34 1019.30 1019.22 1019.12 1019.02 1018.95 1018.91 1018.91 1018.97
1009.94 1010.13 1010.24 1010.22 1010.07 1009.79 1009.45 1009.12 1008.86 1008.75 1008.86 1009.21 1009.80 1010.62 1011.60 1012.68 1013.78 1014.83 1015.77 1016.56 1017.19 1017.65 1017.97 1018.18 1018.32 1018.42 1018.52 1018.63 1018.76 1018.91 1019.06 1019.20 1019.31 1019.39 1019.42 1019.42 1019.38 1019.31 1019.24 1019.17 1019.13 1019.11 1019.12 1019.17
1010.12 1010.35 1010.53 1010.63 1010.62 1010.50 1010.31 1010.11 1009.96 1009.94 1010.09 1010.46 1011.04 1011.84 1012.79 1013.84 1014.92 1015.95 1016.87 1017.64 1018.24 1018.67 1018.94 1019.08 1019.14 1019.15 1019.13 1019.13 1019.14 1019.18 1019.23 1019.29 1019.35 1019.39 1019.42 1019.42 1019.41 1019.39 1019.37 1019.36 1019.35 1019.37 1019.40 1019.44
1010.38 1010.63 1010.88 1011.08 1011.20 1011.24 1011.21 1011.15 1011.12 1011.17 1011.36 1011.72 1012.27 1012.99 1013.85 1014.80 1015.78 1016.71 1017.55 1018.26 1018.81 1019.19 1019.42 1019.52 1019.52 1019.48 1019.40 1019.33 1019.28 1019.25 1019.25 1019.26 1019.29 1019.33 1019.37 1019.42 1019.46 1019.50 1019.54 1019.59 1019.65 1019.70 1019.75 1019.79
1010.72 1010.97 1011.27 1011.56 1011.80 1011.98 1012.10 1012.17 1012.25 1012.38 1012.59 1012.93 1013.41 1014.02 1014.75 1015.55 1016.38 1017.18 1017.90 1018.51 1018.98 1019.32 1019.51 1019.59 1019.58 1019.52 1019.43 1019.33 1019.25 1019.20 1019.17 1019.18 1019.21 1019.26 1019.33 1019.42 1019.52 1019.64 1019.76 1019.88 1020.00 1020.09 1020.17 1020.20
1011.11 1011.37 1011.70 1012.05 1012.39 1012.68 1012.92 1013.12 1013.30 1013.48 1013.71 1014.02 1014.42 1014.91 1015.49 1016.13 1016.78 1017.43 1018.02 1018.52 1018.92 1019.20 1019.37 1019.45 1019.45 1019.41 1019.33 1019.25 1019.17 1019.12 1019.10 1019.10 1019.15 1019.22 1019.33 1019.47 1019.63 1019.81 1020.00 1020.18 1020.36 1020.50 1020.60 1020.64
1011.49 1011.75 1012.10 1012.50 1012.91 1013.29 1013.64 1013.93 1014.18 1014.42 1014.66 1014.94 1015.26 1015.64 1016.08 1016.56 1017.06 1017.55 1018.01 1018.42 1018.75 1019.00 1019.17 1019.26 1019.29 1019.28 1019.23 1019.18 1019.13 1019.10 1019.08 1019.10 1019.16 1019.25 1019.38 1019.55 1019.75 1019.98 1020.22 1020.46 1020.68 1020.87 1021.00 1021.06
1011.81 1012.07 1012.44 1012.86 1013.32 1013.77 1014.19 1014.55 1014.87 1015.15 1015.41 1015.66 1015.93 1016.22 1016.54 1016.90 1017.27 1017.64 1018.00 1018.33 1018.61 1018.84 1019.01 1019.13 1019.20 1019.23 1019.24 1019.22 1019.20 1019.18 1019.17 1019.19 1019.24 1019.34 1019.47 1019.65 1019.87 1020.12 1020.39 1020.67 1020.92 1021.14 1021.30 1021.39
Thickness
5756 5746 5744 5756 5767 5769 5772 5775 5782 5800 5822 5819 5810 5807 5816 5826 5825 5820 5817 5820 5822 5821 5821 5815 5808 5801 5794 5786 5778 5772 5764 5759 5753 5746 5738 5731 5725 5720 5715 5710 5705 5699 5694 5689
5742 5741 5759 5771 5775 5773 5769 5765 5773 5793 5815 5812 5804 5801 5811 5816 5817 5819 5819 5819 5818 5816 5812 5803 5797 5791 5786 5779 5772 5765 5758 5751 5745 5739 5734 5727 5720 5713 5707 5700 5695 5690 5684 5680
5737 5757 5771 5766 5765 5764 5766 5765 5769 5776 5793 5799 5789 5782 5792 5804 5813 5818 5820 5821 5820 5813 5803 5793 5786 5785 5779 5770 5764 5758 5751 5744 5737 5731 5724 5717 5710 5702 5695 5688 5683 5679 5675 5670
5746 5763 5770 5764 5762 5764 5755 5771 5770 5768 5764 5764 5774 5756 5780 5794 5801 5808 5813 5816 5815 5813 5801 5792 5784 5777 5770 5763 5756 5749 5742 5735 5727 5721 5714 5707 5698 5692 5687 5681 5674 5669 5665 5660
5746 5761 5761 5756 5761 5765 5760 5773 5769 5766 5758 5752 5760 5751 5768 5794 5794 5805 5814 5815 5813 5812 5801 5789 5781 5772 5763 5755 5746 5739 5731 5723 5717 5710 5704 5697 5689 5684 5678 5671 5664 5659 5653 5649
5755 5773 5772 5768 5773 5769 5767 5762 5759 5757 5751 5731 5749 5746 5753 5783 5795 5807 5817 5813 5809 5806 5796 5785 5775 5763 5751 5742 5734 5726 5718 5710 5705 5699 5692 5686 5679 5672 5666 5659 5653 5649 5644 5640
5739 5756 5773 5776 5761 5763 5757 5737 5720 5718 5721 5729 5761 5754 5764 5794 5808 5811 5810 5805 5802 5798 5786 5773 5761 5748 5736 5728 5720 5712 5705 5697 5692 5687 5681 5674 5667 5661 5655 5649 5643 5639 5635 5630
5727 5733 5759 5768 5757 5749 5750 5739 5715 5708 5722 5746 5770 5764 5781 5803 5810 5810 5805 5800 5794 5788 5776 5763 5749 5736 5725 5715 5707 5699 5692 5686 5680 5674 5668 5662 5656 5651 5644 5639 5634 5629 5624 5618
5733 5742 5772 5775 5772 5758 5744 5744 5750 5733 5729 5725 5742 5764 5786 5799 5795 5794 5792 5788 5782 5776 5764 5752 5738 5726 5715 5704 5696 5688 5681 5674 5668 5662 5655 5650 5645 5640 5633 5627 5623 5618 5610 5605
5737 5730 5757 5778 5775 5764 5756 5751 5742 5729 5712 5707 5727 5745 5759 5770 5775 5777 5775 5771 5768 5761 5748 5738 5726 5715 5704 5693 5683 5675 5668 5661 5655 5649 5644 5638 5633 5627 5621 5616 5608 5603 5597 5590
5733 5718 5733 5754 5752 5747 5748 5741 5736 5734 5732 5715 5712 5735 5766 5762 5764 5762 5763 5761 5755 5745 5731 5720 5710 5701 5690 5679 5670 5661 5654 5648 5642 5637 5632 5626 5620 5614 5608 5602 5596 5590 5583 5576
5721 5714 5711 5732 5759 5766 5754 5747 5739 5717 5714 5720 5714 5728 5770 5765 5758 5752 5748 5748 5742 5732 5721 5709 5699 5688 5676 5666 5657 5648 5641 5635 5630 5624 5618 5612 5605 5599 5594 5588 5582 5575 5569 5563
5697 5697 5687 5700 5723 5744 5742 5744 5744 5737 5725 5714 5707 5722 5757 5750 5739 5734 5728 5722 5717 5709 5704 5697 5687 5676 5664 5653 5644 5635 5628 5622 5617 5611 5603 5596 5590 5584 5578 5572 5566 5560 5555 5549
5683 5681 5681 5685 5706 5714 5714 5724 5731 5727 5715 5711 5714 5722 5729 5720 5714 5714 5712 5707 5701 5693 5687 5682 5674 5662 5651 5641 5630 5621 5613 5607 5601 5594 5587 5579 5573 5567 5561 5556 5551 5546 5541 5534
5671 5666 5676 5688 5704 5707 5705 5707 5710 5708 5708 5701 5706 5709 5704 5694 5694 5695 5695 5694 5689 5681 5672 5664 5656 5645 5634 5624 5614 5605 5597 5590 5583 5577 5569 5562 5556 5551 5545 5541 5537 5532 5526 5521
5661 5653 5659 5668 5687 5695 5695 5700 5701 5700 5701 5700 5700 5696 5682 5681 5679 5676 5676 5675 5670 5663 5655 5646 5636 5626 5615 5605 5595 5586 5578 5571 5565 5558 5552 5546 5541 5536 5531 5527 5522 5517 5511 5505
5647 5643 5640 5647 5668 5673 5671 5688 5691 5694 5696 5687 5676 5666 5666 5659 5654 5651 5651 5650 5646 5640 5633 5624 5613 5602 5592 5584 5575 5567 5560 5554 5547 5542 5536 5531 5527 5523 5518 5513 5508 5502 5496 5490
5630 5628 5631 5636 5643 5634 5667 5685 5681 5674 5667 5668 5662 5654 5650 5641 5631 5626 5624 5621 5616 5611 5604 5596 5587 5577 5568 5561 5555 5549 5543 5537 5532 5527 5522 5518 5515 5511 5506 5499 5493 5486 5481 5475
5631 5620 5617 5622 5627 5641 5656 5656 5658 5651 5641 5642 5640 5639 5638 5634 5623 5603 5597 5593 5587 5582 5575 5568 5562 5555 5548 5542 5537 5532 5527 5523 5519 5515 5510 5506 5502 5497 5491 5484 5477 5471 5466 5461
5625 5619 5610 5614 5613 5618 5616 5635 5645 5638 5620 5619 5622 5621 5622 5622 5610 5582 5572 5568 5562 5557 5552 5546 5541 5536 5530 5525 5521 5518 5514 5510 5507 5503 5498 5493 5488 5483 5476 5469 5463 5458 5454 5448
5602 5603 5603 5604 5604 5611 5607 5625 5630 5610 5594 5604 5606 5605 5603 5592 5579 5562 5554 5548 5543 5538 5533 5528 5524 5519 5515 5512 5509 5506 5503 5500 5496 5492 5486 5481 5475 5470 5463 5457 5451 5446 5441 5436
5596 5594 5595 5597 5593 5587 5597 5605 5595 5587 5593 5592 5591 5587 5579 5566 5554 5546 5538 5532 5527 5522 5518 5514 5510 5506 5504 5502 5500 5496 5493 5489 5485 5480 5474 5468 5463 5459 5453 5447 5440 5434 5429 5425
5598 5596 5587 5582 5575 5579 5585 5583 5582 5583 5579 5577 5574 5570 5562 5550 5540 5532 5525 5519 5514 5511 5507 5505 5502 5499 5497 5495 5492 5488 5484 5480 5475 5469 5463 5458 5453 5446 5441 5435 5429 5423 5418 5413
5587 5593 5589 5582 5574 5573 5572 5570 5568 5567 5564 5562 5559 5554 5546 5536 5527 5520 5515 5510 5506 5503 5501 5499 5497 5494 5491 5488 5484 5480 5475 5471 5466 5461 5457 5451 5444 5437 5429 5424 5418 5411 5406 5400
5574 5577 5576 5572 5568 5565 5558 5556 5554 5552 5549 5546 5542 5537 5531 5524 5517 5512 5507 5503 5500 5498 5496 5494 5491 5489 5485 5481 5477 5473 5468 5463 5459 5455 5450 5443 5436 5428 5420 5412 5403 5399 5391 5386
5570 5567 5563 5558 5557 5553 5545 5544 5543 5540 5536 5533 5530 5524 5520 5517 5512 5508 5504 5501 5499 5496 5494 5492 5489 5485 5480 5475 5470 5465 5461 5456 5452 5446 5440 5434 5426 5419 5412 5404 5396 5387 5384 5378